Location: Maddington
(51.2000°N, 1.9167°W)
Time: 22:24:22
(UTC+00:00)

Cosmos 2098 Rocket - Pass Details

Date: 18 September 2020
Orbit: 366 x 1185 km, 82.9° (Epoch: 30 October)

Event Time Altitude Azimuth Distance (km) Brightness Sun altitude
Rises 20:51:26 0° 351° (N) 4,084 7.9 -23.8°
Reaches altitude 10° 20:54:19 10° 355° (N) 3,085 7.1 -24.2°
Maximum altitude 21:01:29 56° 73° (ENE) 1,266 4.3 -25.1°
Enters shadow 21:02:26 52° 103° (ESE) 1,299 4.2 -25.2°
